SQ2CET-13 Weather Reports


time (UTC)temp
C
wind
direction
speed
KPH
gust
KPH
rain 1hr
cm
rain 24hr
cm
rain mn
cm
humidity
%
barometer
mb
20260904195023 15 259 9.7 19.3 0.00 1.07 1.04 89 1001.9
20260904194047 15 250 6.4 16.1 0.05 1.07 1.04 89 1001.9
20260904193111 15 268 8.0 19.3 0.05 1.07 1.04 89 1001.8
20260904192031 15 282 8.0 17.7 0.03 1.09 1.04 88 1001.6
20260904191117 16 263 8.0 22.5 0.05 1.09 1.04 89 1001.6
20260904190119 16 254 9.7 30.6 0.05 1.09 1.04 89 1001.1
20260904185031 16 239 11.3 32.2 0.05 1.09 1.04 89 1000.9
20260904184056 16 236 16.1 33.8 0.00 1.09 1.02 88 1000.7
20260904183121 16 243 16.1 29.0 0.00 1.12 1.02 88 1000.6
20260904182039 16 241 20.9 32.2 0.00 1.17 1.02 88 1000.5
20260904181104 16 237 14.5 32.2 0.00 1.22 0.99 87 1000.6
20260904180027 16 241 17.7 38.6 0.00 1.30 0.99 88 1000.7
20260904175048 16 243 12.9 27.4 0.00 1.30 0.99 88 1000.6
20260904174113 16 234 11.3 27.4 0.00 1.30 0.99 89 1000.5
20260904173024 16 238 14.5 24.1 0.00 1.30 0.99 89 1000.4
20260904172048 16 249 9.7 24.1 0.00 1.30 0.99 89 1000.4
20260904171112 16 239 9.7 19.3 0.03 1.30 0.99 90 1000.1
20260904170031 16 239 6.4 11.3 0.05 1.27 0.99 90 999.8
20260904165155 16 243 4.8 11.3 0.08 1.27 0.99 89 1000.0
20260904164125 16 241 8.0 12.9 0.10 1.27 0.99 89 1000.1
20260904163039 16 245 8.0 14.5 0.10 1.27 0.99 89 1000.4
20260904162048 16 194 4.8 12.9 0.13 1.30 0.99 90 999.3
20260904161132 16 249 3.2 8.0 0.15 1.32 0.97 89 999.8
20260904160032 16 182 0.0 8.0 0.18 1.40 0.94 89 1000.4
20260904155040 16 118 3.2 8.0 0.23 1.47 0.91 89 1000.2
20260904154105 16 38 1.6 4.8 0.23 1.45 0.89 89 1000.7
20260904153121 16 31 1.6 3.2 0.25 1.45 0.89 89 1001.1
20260904152101 16 47 3.2 6.4 0.25 1.42 0.86 89 1001.2
20260904151108 16 175 3.2 9.7 0.28 1.37 0.81 89 1001.5
20260904150044 16 155 3.2 8.0 0.28 1.35 0.74 88 1002.1
20260904145049 16 225 3.2 8.0 0.25 1.32 0.69 88 1002.4
20260904144145 16 133 1.6 4.8 0.23 1.35 0.66 88 1002.4
20260904143023 16 19 1.6 3.2 0.23 1.42 0.64 88 1002.5
20260904142041 16 104 1.6 4.8 0.20 1.45 0.61 88 1002.9
20260904141056 16 185 3.2 8.0 0.13 1.45 0.53 86 1003.5
20260904140112 16 269 0.0 3.2 0.08 1.42 0.48 85 1003.9
20260904135026 16 244 4.8 8.0 0.05 1.42 0.43 84 1004.0
20260904134048 16 200 8.0 14.5 0.03 1.42 0.43 84 1004.0
20260904133113 16 210 6.4 16.1 0.00 1.40 0.41 84 1004.4
20260904132031 16 214 8.0 24.1 0.00 1.40 0.41 83 1004.4
20260904131057 16 214 6.4 19.3 0.00 1.40 0.41 81 1004.6
20260904130119 16 209 8.0 16.1 0.00 1.40 0.41 81 1004.8
20260904125039 16 213 9.7 22.5 0.00 1.40 0.41 80 1005.1
20260904124103 17 230 8.0 24.1 0.00 1.40 0.41 79 1005.5
20260904123031 17 217 12.9 25.7 0.00 1.40 0.41 77 1005.7
20260904122039 17 217 12.9 33.8 0.00 1.40 0.41 77 1006.2
20260904121124 17 219 11.3 25.7 0.00 1.40 0.41 77 1006.3
20260904120112 17 234 12.9 24.1 0.00 1.40 0.41 73 1006.5
20260904115032 17 237 9.7 25.7 0.00 1.40 0.41 72 1006.6
20260904114058 17 231 11.3 33.8 0.00 1.40 0.41 72 1006.8
20260904113133 17 231 14.5 29.0 0.00 1.40 0.41 72 1007.0
20260904112045 17 228 9.7 27.4 0.00 1.40 0.41 71 1007.1
20260904111049 17 236 14.5 35.4 0.00 1.40 0.41 72 1007.3
20260904110112 18 241 9.7 24.1 0.00 1.40 0.41 72 1007.4
20260904105033 18 235 11.3 29.0 0.00 1.40 0.41 73 1007.5
20260904104056 17 236 9.7 29.0 0.00 1.40 0.41 73 1007.7
20260904103120 18 232 12.9 25.7 0.00 1.40 0.41 73 1007.8
20260904102039 18 243 12.9 35.4 0.00 1.40 0.41 73 1007.9
20260904101103 18 242 14.5 30.6 0.00 1.40 0.41 73 1007.8
20260904100023 17 246 9.7 20.9 0.08 1.40 0.41 76 1007.9
20260904095058 17 240 9.7 22.5 0.08 1.40 0.41 78 1008.1
20260904094112 17 244 12.9 25.7 0.08 1.40 0.41 79 1008.0
20260904093031 16 240 11.3 22.5 0.08 1.40 0.41 82 1008.2
20260904092048 15 263 8.0 12.9 0.08 1.40 0.41 87 1008.3
20260904091132 16 246 9.7 24.1 0.08 1.40 0.38 84 1008.3
20260904090031 17 242 17.7 37.0 0.00 1.32 0.33 78 1008.3
20260904085108 17 246 14.5 37.0 0.00 1.32 0.33 73 1008.1
20260904084103 18 251 11.3 29.0 0.00 1.32 0.33 73 1008.2
20260904083023 17 241 16.1 25.7 0.00 1.32 0.33 74 1008.5
20260904082048 17 230 12.9 32.2 0.00 1.32 0.33 77 1008.5
20260904081112 17 242 16.1 33.8 0.00 1.32 0.33 78 1008.6
20260904080035 17 256 11.3 30.6 0.00 1.32 0.33 79 1008.5
20260904075056 16 239 14.5 27.4 0.00 1.32 0.33 81 1008.4
20260904074139 16 248 11.3 20.9 0.00 1.32 0.33 83 1008.5
20260904073040 16 237 11.3 19.3 0.00 1.32 0.33 84 1008.4
20260904072103 16 241 11.3 20.9 0.00 1.32 0.33 84 1008.4
20260904071044 16 257 8.0 27.4 0.00 1.32 0.33 84 1008.6
20260904070042 16 253 8.0 24.1 0.00 1.32 0.33 85 1008.5
20260904065104 15 243 9.7 24.1 0.00 1.32 0.33 85 1008.5
20260904064024 15 239 11.3 20.9 0.00 1.32 0.33 85 1008.4
20260904063047 15 238 9.7 20.9 0.00 1.32 0.33 86 1008.6
20260904062103 15 239 11.3 20.9 0.00 1.32 0.33 87 1008.7
20260904061024 15 243 11.3 22.5 0.00 1.32 0.33 86 1009.0
20260904060048 15 238 12.9 19.3 0.00 1.32 0.30 86 1009.0
20260904055112 15 247 9.7 25.7 0.00 1.32 0.30 86 1008.9
20260904054052 15 242 12.9 29.0 0.00 1.32 0.30 86 1008.7
20260904053050 15 246 9.7 20.9 0.05 1.32 0.30 87 1008.8
20260904052112 15 247 11.3 27.4 0.23 1.32 0.30 87 1008.7
20260904051032 15 236 14.5 24.1 0.23 1.32 0.30 87 1008.9
20260904050116 15 243 9.7 22.5 0.23 1.32 0.30 88 1009.0
20260904045119 15 242 16.1 22.5 0.23 1.32 0.30 89 1009.2
20260904044039 15 247 9.7 17.7 0.23 1.32 0.30 89 1008.9
20260904043103 15 248 12.9 24.1 0.18 1.24 0.25 87 1009.2
20260904042023 16 250 9.7 24.1 0.00 1.09 0.08 87 1009.2
20260904041047 16 248 9.7 19.3 0.00 1.09 0.08 86 1009.1
20260904040111 16 256 12.9 20.9 0.00 1.09 0.08 87 1009.2
20260904035033 16 255 8.0 19.3 0.00 1.09 0.08 88 1009.2
20260904034110 16 242 11.3 19.3 0.00 1.09 0.08 88 1009.2
20260904033114 16 233 9.7 25.7 0.00 1.09 0.08 87 1009.2
20260904032030 16 253 8.0 19.3 0.00 1.09 0.08 87 1009.3
20260904031049 16 238 11.3 19.3 0.00 1.09 0.08 87 1009.3
20260904030104 16 254 9.7 24.1 0.00 1.09 0.08 87 1009.3
20260904025044 16 253 9.7 27.4 0.00 1.09 0.08 87 1009.3
20260904024048 16 246 9.7 22.5 0.00 1.09 0.08 88 1009.3
20260904023113 16 250 9.7 19.3 0.00 1.09 0.08 87 1009.3
20260904022032 16 245 8.0 24.1 0.00 1.09 0.08 87 1009.5
20260904021058 16 246 12.9 22.5 0.00 1.09 0.08 88 1009.3
20260904020139 16 243 11.3 24.1 0.00 1.09 0.08 87 1009.3
20260904015024 16 244 12.9 27.4 0.00 1.09 0.08 87 1009.4
20260904014048 16 249 12.9 25.7 0.00 1.09 0.08 87 1009.4
20260904013113 16 250 12.9 33.8 0.08 1.09 0.08 87 1009.2
20260904012024 16 240 14.5 25.7 0.08 1.09 0.08 87 1009.4
20260904011109 16 242 9.7 30.6 0.08 1.09 0.08 88 1009.4
20260904010112 16 239 14.5 24.1 0.08 1.09 0.08 88 1009.4
20260904005027 16 244 11.3 24.1 0.08 1.09 0.08 89 1009.5
20260904004049 16 239 14.5 29.0 0.08 1.07 0.08 88 1009.5
20260904003112 17 245 11.3 32.2 0.00 0.99 0.00 86 1009.3
20260904002032 17 240 9.7 29.0 0.00 0.99 0.00 86 1009.5
20260904001057 16 234 12.9 25.7 0.00 0.99 0.00 87 1009.5
20260904000122 16 246 9.7 20.9 0.00 0.99 0.00 87 1009.7
20260903235040 16 237 9.7 20.9 0.00 0.99 0.99 87 1009.9
20260903234104 16 229 11.3 30.6 0.00 0.99 0.99 87 1009.9
20260903233024 16 235 8.0 24.1 0.00 0.99 0.99 87 1010.0
20260903232048 16 234 12.9 24.1 0.00 0.99 0.99 87 1009.9
20260903231112 16 240 8.0 27.4 0.00 0.99 0.99 87 1010.1
20260903230032 16 222 9.7 25.7 0.00 0.99 0.99 87 1010.1
20260903225056 16 240 11.3 25.7 0.00 0.99 0.99 87 1010.2
20260903224121 16 237 9.7 25.7 0.00 0.99 0.99 87 1010.4
20260903223121 16 227 11.3 22.5 0.00 0.99 0.99 87 1010.3
20260903222104 16 234 9.7 19.3 0.00 0.99 0.99 87 1010.5
20260903221025 16 233 14.5 22.5 0.00 0.99 0.99 87 1010.6
20260903220049 16 240 11.3 25.7 0.00 0.99 0.99 87 1010.7
20260903215132 16 244 11.3 20.9 0.03 0.99 0.99 88 1010.9
20260903214033 16 234 8.0 24.1 0.03 0.99 0.99 88 1010.8
20260903213056 16 236 9.7 24.1 0.03 0.99 0.99 88 1010.8
20260903212122 16 238 9.7 16.1 0.03 0.99 0.99 88 1010.9
20260903211041 16 217 9.7 24.1 0.03 0.99 0.99 87 1011.0
20260903210106 16 235 9.7 30.6 0.03 0.99 0.99 87 1011.1
20260903205024 16 234 12.9 27.4 0.00 0.99 0.99 85 1011.2
20260903204049 16 236 12.9 25.7 0.00 0.99 0.99 85 1011.2
20260903203113 16 223 14.5 29.0 0.00 0.99 0.99 86 1011.2
20260903202032 16 228 12.9 27.4 0.03 0.99 0.99 86 1011.4
20260903201059 16 232 11.3 19.3 0.03 0.99 0.99 86 1011.4
20260903200121 15 228 11.3 30.6 0.03 0.99 0.99 86 1011.6